Weather in Mikhaylovskiy

Russia / Tula Oblast     53°33′24″N   38°28′13″E
temp.,
°C
wind,
m/s
gust,
m/s
humid.,
%
clouds,
%
prec.,
mm/h
press.,
hPa
HPBL,
m
14 april, wed
wed1400:00+12se5126059 0.0 1022226
03:00+10sse3777100 0.0 1022102
06:00+9se3386100 0.0 102133
09:00+12se4662100 0.0 1021242
12:00+17se5737100 0.0 1019676
15:00+19se67276 0.0 10181847
18:00+17sse483396 0.0 1017240
21:00+13se344666 0.0 101752
15 april, thu
thu1500:00+11se3757100 0.0 1017121
03:00+10se3659100 0.0 1016102
06:00+9se3368100 0.0 101636
09:00+13ene3355100 0.0 1016176
12:00+16e5643100 0.0 1015856
15:00+18ese3441100 0.0 10141633
18:00+16ene2348100 0.0 101471
21:00+13se4116098 0.0 1015251
16 april, fri
fri1600:00+12e3469100 0.1 101566
03:00+11e357298 0.1 1016100
06:00+10e347799 0.1 101780
09:00+12ene5672100 0.1 1017346
12:00+15e5660100 0.0 1018915
15:00+17ese6850100 0.3 10171601
18:00+15se3660100 2.8 1017232
21:00+12e238193 6.7 101979
17 april, sat
sat1700:00+10ene6990100 1.8 1020386
03:00+8ne6109492 2.3 1020330
06:00+7ne6119477 0.1 1021394
09:00+10ene8108263 0.1 1021582
12:00+13ene9116536 0.0 1021901
15:00+15ene9126090 0.0 10211419
18:00+14ene81363100 0.1 10211080
21:00+11ene7146897 0.1 1023710
18 april, sun
sun1800:00+9ene6126861 0.2 1023784
03:00+7ene6116748 0.2 1024445
06:00+6ene51069100 0.0 1025327
09:00+7ene51067100 0.0 1026416
12:00+11e7848100 0.0 10261040
15:00+13ene684165 0.0 10261701
18:00+13ene58435 0.0 1026938
21:00+9ne410595 0.0 1028240